Weather History for KMGJ - August, 2014

Change the Weather History Date:

Sunday, August 24, 2014

  Actual Average (KPOU) Record (KPOU)
Temperature  
Mean Temperature 68 °F 70 °F  
Max Temperature 84 °F 82 °F 91 °F (1972)
Min Temperature 51 °F 59 °F 41 °F (1952)
Degree Days  
Heating Degree Days 0 1  
Month to date heating degree days 2  
Since 1 June heating degree days 56  
Since 1 July heating degree days 7  
Cooling Degree Days 2 0  
Month to date cooling degree days 168  
Year to date cooling degree days 571  
Since 1 June cooling degree days 535  
Growing Degree Days 18 (Base 50)    
Moisture  
Dew Point 56 °F    
Average Humidity 83    
Maximum Humidity 100    
Minimum Humidity 37    
Precipitation  
Precipitation 0.00 in 0.12 in 1.82 in (1988)
Month to date precipitation 3.38  
Year to date precipitation 29.96  
Sea Level Pressure  
Sea Level Pressure 30.15 in    
Wind  
Wind Speed 1 mph (NE)    
Max Wind Speed 16 mph    
Max Gust Speed 23 mph    
Visibility 6 miles    
Events Fog    
T = Trace of Precipitation, MM = Missing Value Source: NWS Daily Summary

Daily Weather History Graph

Daily Weather History Graph

Search for Another Location

Airport or City:

Trip Planner

Search our weather history database for the weather conditions in past years. The results will help you decide how hot, cold, wet, or windy it might be!

Date:

Astronomy

Aug. 24, 2014 Rise Set
Actual Time 6:15 AM EDT 7:43 PM EDT
Civil Twilight 5:45 AM EDT 8:11 PM EDT
Nautical Twilight 5:10 AM EDT 8:46 PM EDT
Astronomical Twilight 4:33 AM EDT 9:23 PM EDT
Moon 5:23 AM EDT (8/24) 6:59 PM EDT (8/24)
Length of Visible Light 14h 26m
Length of Day
13h 27m
Waning Crescent, 1% of the Moon is Illuminated
Aug 24
Waning Crescent
Aug 25
New
Sep 2
First Quarter
Sep 8
Full
Sep 15
Last Quarter

Hourly Weather History & Observations

Time (EDT) Temp. Heat Index Dew Point Humidity Pressure Visibility Wind Dir Wind Speed Gust Speed Precip Events Conditions
12:54 AM 59.0 °F - 57.9 °F 96% 30.14 in 10.0 mi Calm Calm - 0.00 in   Clear
1:21 AM 57.0 °F - 55.9 °F 96% 30.14 in 1.8 mi Calm Calm - N/A   Clear
1:25 AM 57.0 °F - 55.9 °F 96% 30.14 in 0.8 mi Calm Calm - N/A   Mist
1:38 AM 57.9 °F - 55.9 °F 93% 30.14 in 1.2 mi Calm Calm - N/A   Partly Cloudy
1:43 AM 57.0 °F - 55.9 °F 96% 30.14 in 3.0 mi Calm Calm - N/A   Partly Cloudy
1:54 AM 55.9 °F - 55.0 °F 97% 30.14 in 3.0 mi Calm Calm - 0.00 in   Partly Cloudy
2:16 AM 57.0 °F - 55.0 °F 93% 30.14 in 1.8 mi Calm Calm - N/A   Scattered Clouds
2:23 AM 55.9 °F - 55.0 °F 97% 30.14 in 0.8 mi Calm Calm - N/A   Mist
2:39 AM 57.0 °F - 55.0 °F 93% 30.15 in 1.2 mi Calm Calm - N/A   Mostly Cloudy
2:45 AM 57.0 °F - 55.0 °F 93% 30.15 in 4.0 mi Calm Calm - 0.00 in   Scattered Clouds
2:49 AM 57.2 °F - 55.4 °F 94% 30.15 in 1.5 mi Calm Calm - 0.00 in   Scattered Clouds
2:51 AM 55.4 °F - 55.4 °F 100% 30.15 in 0.8 mi Calm Calm - 0.00 in   Mist
2:54 AM 55.0 °F - 54.0 °F 96% 30.15 in 0.8 mi Calm Calm - 0.00 in   Mist
3:54 AM 54.0 °F - 53.1 °F 97% 30.14 in 0.5 mi Calm Calm - N/A Fog Fog
4:32 AM 54.0 °F - 52.0 °F 93% 30.14 in 1.2 mi Calm Calm - N/A   Mostly Cloudy
4:39 AM 54.0 °F - 53.1 °F 97% 30.14 in 3.0 mi Calm Calm - N/A   Mostly Cloudy
4:54 AM 53.1 °F - 52.0 °F 96% 30.14 in 0.5 mi Calm Calm - N/A Fog Fog
5:22 AM 52.0 °F - 52.0 °F 100% 30.15 in 1.2 mi Calm Calm - 0.00 in   Partly Cloudy
5:25 AM 52.0 °F - 51.1 °F 97% 30.15 in 3.0 mi Calm Calm - 0.00 in   Partly Cloudy
5:54 AM 51.1 °F - 50.0 °F 96% 30.16 in 9.0 mi Calm Calm - 0.00 in   Clear
6:28 AM 53.1 °F - 52.0 °F 96% 30.16 in 8.0 mi Calm Calm - N/A   Partly Cloudy
6:54 AM 53.1 °F - 52.0 °F 96% 30.17 in 1.8 mi Calm Calm - N/A   Partly Cloudy
7:03 AM 54.0 °F - 53.1 °F 97% 30.17 in 1.2 mi Calm Calm - N/A   Partly Cloudy
7:13 AM 55.0 °F - 54.0 °F 96% 30.17 in 10.0 mi Calm Calm - N/A   Scattered Clouds
7:54 AM 57.9 °F - 57.0 °F 97% 30.17 in 10.0 mi Calm Calm - N/A   Scattered Clouds
8:54 AM 64.9 °F - 59.0 °F 81% 30.17 in 10.0 mi Calm Calm - N/A   Clear
9:54 AM 71.1 °F - 59.0 °F 66% 30.17 in 10.0 mi NE 6.9 mph - N/A   Clear
10:54 AM 75.0 °F - 55.9 °F 51% 30.16 in 10.0 mi NNE 10.4 mph - N/A   Clear
11:54 AM 78.1 °F - 57.9 °F 50% 30.15 in 10.0 mi NNE 15.0 mph 23.0 mph N/A   Clear
12:54 PM 81.0 °F 81.1 °F 57.9 °F 45% 30.14 in 10.0 mi NNE 16.1 mph 23.0 mph N/A   Partly Cloudy
1:54 PM 81.0 °F 81.0 °F 57.0 °F 44% 30.13 in 10.0 mi ENE 10.4 mph - N/A   Scattered Clouds
2:54 PM 84.0 °F 82.9 °F 55.0 °F 37% 30.12 in 10.0 mi NE 12.7 mph 18.4 mph N/A   Partly Cloudy
3:54 PM 82.0 °F 81.7 °F 57.0 °F 42% 30.11 in 10.0 mi NE 8.1 mph - N/A   Scattered Clouds
4:54 PM 80.1 °F 80.2 °F 55.9 °F 43% 30.11 in 10.0 mi ENE 6.9 mph - N/A   Overcast
5:54 PM 78.1 °F - 57.0 °F 48% 30.12 in 10.0 mi ENE 6.9 mph - N/A   Overcast
6:54 PM 75.0 °F - 60.1 °F 60% 30.12 in 10.0 mi East 3.5 mph - N/A   Scattered Clouds
7:54 PM 68.0 °F - 61.0 °F 78% 30.13 in 10.0 mi Calm Calm - N/A   Mostly Cloudy
8:54 PM 64.9 °F - 61.0 °F 87% 30.14 in 10.0 mi Calm Calm - N/A   Clear
9:54 PM 62.1 °F - 59.0 °F 90% 30.15 in 10.0 mi South 4.6 mph - N/A   Clear
10:54 PM 61.0 °F - 59.0 °F 93% 30.16 in 10.0 mi WNW 3.5 mph - N/A   Scattered Clouds
11:54 PM 59.0 °F - 57.0 °F 93% 30.17 in 10.0 mi Calm Calm - N/A   Clear